When you browse on this site, cookies collect data to enhance your experience and personalize the content and advertising you see.
Visit our Privacy Policy to learn more. By continuing to use the site, you agree to this use of cookies and data.
  • In Hungary
  • List of Countries
  • For 7 days
  • Water Temperature
  • Satellite Maps
  • Weather Map
  • News
  • Weather Widgets
  • user-avatar
    Login

    Hourly Weather Puerto Iguazu

    Today, 16 July, Tuesday

    Time Temperature Precipitation Wind Pressure Humidity
    00:00 +11°C° 0 mm 1 mps 749 mmHg 84%
    01:00 +11°C° 0 mm 1 mps 749 mmHg 86%
    02:00 +10°C° 0 mm 1 mps 749 mmHg 88%
    03:00 +10°C° 0 mm 1 mps 749 mmHg 89%
    04:00 +10°C° 0 mm 1 mps 749 mmHg 89%
    05:00 +9°C° 0 mm 1 mps 749 mmHg 90%
    06:00 +10°C° 0 mm 1 mps 750 mmHg 84%
    07:00 +11°C° 0 mm 1 mps 750 mmHg 78%
    08:00 +12°C° 0 mm 2 mps 751 mmHg 71%
    09:00 +15°C° 0 mm 2 mps 751 mmHg 60%
    10:00 +17°C° 0 mm 2 mps 751 mmHg 49%
    11:00 +20°C° 0 mm 2 mps 751 mmHg 38%
    12:00 +22°C° 0 mm 1 mps 751 mmHg 36%
    13:00 +22°C° 0 mm 1 mps 750 mmHg 33%
    14:00 +23°C° 0 mm 1 mps 750 mmHg 31%
    15:00 +21°C° 0 mm 1 mps 750 mmHg 39%
    16:00 +19°C° 0 mm 1 mps 750 mmHg 47%
    17:00 +16°C° 0 mm 1 mps 750 mmHg 54%
    18:00 +15°C° 0 mm 1 mps 750 mmHg 60%
    19:00 +14°C° 0 mm 1 mps 750 mmHg 65%
    20:00 +12°C° 0 mm 1 mps 751 mmHg 70%
    21:00 +12°C° 0 mm 1 mps 751 mmHg 75%
    22:00 +11°C° 0 mm 1 mps 751 mmHg 79%
    23:00 +10°C° 0 mm 1 mps 751 mmHg 83%

    Tomorrow, 17 July, Wednesday

    Time Temperature Precipitation Wind Pressure Humidity
    00:00 +10°C° 0 mm 1 mps 751 mmHg 84%
    01:00 +9°C° 0 mm 1 mps 750 mmHg 86%
    02:00 +9°C° 0 mm 1 mps 750 mmHg 87%
    03:00 +9°C° 0 mm 1 mps 750 mmHg 87%
    04:00 +9°C° 0 mm 1 mps 751 mmHg 87%
    05:00 +9°C° 0 mm 1 mps 751 mmHg 87%
    06:00 +10°C° 0 mm 1 mps 751 mmHg 80%
    07:00 +10°C° 0 mm 2 mps 752 mmHg 73%
    08:00 +12°C° 0 mm 2 mps 752 mmHg 66%
    09:00 +14°C° 0 mm 2 mps 752 mmHg 60%
    10:00 +17°C° 0 mm 2 mps 752 mmHg 54%
    11:00 +19°C° 0 mm 2 mps 752 mmHg 48%
    12:00 +20°C° 0 mm 2 mps 752 mmHg 47%
    13:00 +21°C° 0 mm 2 mps 751 mmHg 46%
    14:00 +23°C° 0 mm 2 mps 750 mmHg 44%
    15:00 +20°C° 0 mm 2 mps 750 mmHg 52%
    16:00 +19°C° 0 mm 2 mps 750 mmHg 60%
    17:00 +18°C° 0 mm 1 mps 750 mmHg 67%
    18:00 +16°C° 0 mm 1 mps 750 mmHg 71%
    19:00 +15°C° 0 mm 1 mps 750 mmHg 75%
    20:00 +14°C° 0 mm 1 mps 750 mmHg 79%
    21:00 +14°C° 0 mm 2 mps 750 mmHg 79%
    22:00 +14°C° 0 mm 2 mps 750 mmHg 78%
    23:00 +13°C° 0 mm 2 mps 750 mmHg 78%

    Day after tomorrow, 18 July, Thursday

    Time Temperature Precipitation Wind Pressure Humidity
    00:00 +13°C° 0 mm 2 mps 750 mmHg 79%
    01:00 +13°C° 0 mm 2 mps 750 mmHg 79%
    02:00 +13°C° 0 mm 2 mps 750 mmHg 80%
    03:00 +13°C° 0 mm 2 mps 750 mmHg 80%
    04:00 +13°C° 0 mm 2 mps 750 mmHg 80%
    05:00 +13°C° 0 mm 2 mps 750 mmHg 80%
    06:00 +14°C° 0 mm 2 mps 750 mmHg 76%
    07:00 +15°C° 0 mm 2 mps 751 mmHg 72%
    08:00 +15°C° 0 mm 2 mps 751 mmHg 68%
    09:00 +16°C° 0 mm 2 mps 751 mmHg 64%
    10:00 +17°C° 0 mm 2 mps 751 mmHg 60%
    11:00 +18°C° 0 mm 2 mps 751 mmHg 55%
    12:00 +19°C° 0 mm 2 mps 751 mmHg 55%
    13:00 +21°C° 0 mm 1 mps 751 mmHg 54%
    14:00 +21°C° 0 mm 1 mps 750 mmHg 53%
    15:00 +20°C° 0 mm 1 mps 750 mmHg 58%
    16:00 +19°C° 0 mm 1 mps 750 mmHg 62%
    17:00 +17°C° 0 mm 0 mps 750 mmHg 67%
    18:00 +16°C° 0.1 mm 0 mps 750 mmHg 72%
    19:00 +16°C° 0.1 mm 1 mps 750 mmHg 77%
    20:00 +16°C° 0.1 mm 1 mps 750 mmHg 83%
    21:00 +15°C° 0 mm 1 mps 750 mmHg 86%
    22:00 +15°C° 0 mm 1 mps 750 mmHg 88%
    23:00 +14°C° 0 mm 1 mps 750 mmHg 91%

    19 July, Friday

    Time Temperature Precipitation Wind Pressure Humidity
    00:00 +14°C° 0 mm 1 mps 750 mmHg 91%
    01:00 +14°C° 0 mm 1 mps 750 mmHg 92%
    02:00 +14°C° 0 mm 1 mps 749 mmHg 92%
    03:00 +14°C° 0 mm 1 mps 749 mmHg 91%
    04:00 +14°C° 0 mm 1 mps 749 mmHg 89%
    05:00 +15°C° 0 mm 1 mps 749 mmHg 88%
    06:00 +15°C° 0.1 mm 1 mps 750 mmHg 87%
    07:00 +15°C° 0.1 mm 1 mps 750 mmHg 85%
    08:00 +16°C° 0.1 mm 1 mps 750 mmHg 84%
    09:00 +19°C° 0 mm 1 mps 750 mmHg 76%
    10:00 +20°C° 0 mm 2 mps 750 mmHg 68%
    11:00 +23°C° 0 mm 2 mps 750 mmHg 60%
    12:00 +24°C° 0 mm 2 mps 749 mmHg 58%
    13:00 +25°C° 0 mm 2 mps 749 mmHg 56%
    14:00 +25°C° 0 mm 3 mps 748 mmHg 53%
    15:00 +24°C° 0 mm 2 mps 748 mmHg 60%
    16:00 +23°C° 0 mm 2 mps 748 mmHg 66%
    17:00 +21°C° 0 mm 2 mps 748 mmHg 73%
    18:00 +20°C° 0 mm 2 mps 748 mmHg 78%
    19:00 +19°C° 0 mm 2 mps 748 mmHg 83%
    20:00 +18°C° 0 mm 2 mps 748 mmHg 88%
    21:00 +18°C° 0 mm 2 mps 747 mmHg 88%
    22:00 +17°C° 0 mm 2 mps 747 mmHg 89%
    23:00 +17°C° 0 mm 2 mps 747 mmHg 90%

    20 July, Saturday

    Time Temperature Precipitation Wind Pressure Humidity
    00:00 +17°C° 0 mm 2 mps 746 mmHg 90%
    01:00 +17°C° 0 mm 2 mps 746 mmHg 91%
    02:00 +17°C° 0 mm 2 mps 746 mmHg 91%
    03:00 +17°C° 0 mm 2 mps 746 mmHg 90%
    04:00 +17°C° 0 mm 2 mps 746 mmHg 90%
    05:00 +17°C° 0 mm 2 mps 746 mmHg 89%
    06:00 +18°C° 0.1 mm 2 mps 746 mmHg 86%
    07:00 +19°C° 0.1 mm 2 mps 746 mmHg 83%
    08:00 +20°C° 0.1 mm 2 mps 747 mmHg 80%
    09:00 +21°C° 0.2 mm 3 mps 747 mmHg 73%
    10:00 +24°C° 0.2 mm 3 mps 747 mmHg 67%
    11:00 +25°C° 0.2 mm 4 mps 747 mmHg 61%
    12:00 +26°C° 0.1 mm 4 mps 746 mmHg 57%
    13:00 +27°C° 0.1 mm 4 mps 746 mmHg 54%
    14:00 +28°C° 0.1 mm 4 mps 745 mmHg 51%
    15:00 +26°C° 0.2 mm 4 mps 745 mmHg 58%
    16:00 +25°C° 0.2 mm 3 mps 745 mmHg 65%
    17:00 +22°C° 0.2 mm 3 mps 745 mmHg 72%
    18:00 +21°C° 0.1 mm 3 mps 745 mmHg 75%
    19:00 +20°C° 0.1 mm 3 mps 745 mmHg 79%
    20:00 +19°C° 0.1 mm 3 mps 745 mmHg 82%
    21:00 +19°C° 0 mm 3 mps 745 mmHg 79%
    22:00 +19°C° 0 mm 3 mps 745 mmHg 76%
    23:00 +19°C° 0 mm 3 mps 745 mmHg 73%

    21 July, Sunday

    Time Temperature Precipitation Wind Pressure Humidity
    00:00 +19°C° 0 mm 3 mps 745 mmHg 72%
    01:00 +19°C° 0 mm 3 mps 744 mmHg 71%
    02:00 +19°C° 0 mm 3 mps 744 mmHg 70%
    03:00 +19°C° 0 mm 3 mps 744 mmHg 69%
    04:00 +19°C° 0 mm 3 mps 744 mmHg 68%
    05:00 +19°C° 0 mm 3 mps 744 mmHg 66%
    06:00 +20°C° 0 mm 3 mps 744 mmHg 63%
    07:00 +21°C° 0 mm 3 mps 744 mmHg 59%
    08:00 +22°C° 0 mm 4 mps 744 mmHg 55%
    09:00 +23°C° 0 mm 4 mps 744 mmHg 51%
    10:00 +26°C° 0 mm 5 mps 744 mmHg 46%
    11:00 +27°C° 0 mm 5 mps 744 mmHg 42%
    12:00 +28°C° 0 mm 5 mps 743 mmHg 42%
    13:00 +28°C° 0 mm 5 mps 742 mmHg 42%
    14:00 +29°C° 0 mm 5 mps 742 mmHg 42%
    15:00 +27°C° 0 mm 4 mps 742 mmHg 47%
    16:00 +26°C° 0 mm 4 mps 742 mmHg 51%
    17:00 +25°C° 0 mm 3 mps 742 mmHg 56%
    18:00 +24°C° 0 mm 3 mps 742 mmHg 58%
    19:00 +24°C° 0 mm 3 mps 742 mmHg 59%
    20:00 +22°C° 0 mm 3 mps 742 mmHg 60%
    21:00 +22°C° 0 mm 3 mps 742 mmHg 60%
    22:00 +22°C° 0 mm 3 mps 742 mmHg 60%
    23:00 +22°C° 0 mm 3 mps 743 mmHg 60%
    Show more